Wind_Speed
7 7 8 9 9 10 10 11 12 12 13 14 14 15 16 17 17 18 19 20 21 22 22 22 23 24 25 25 27 28 29 30 30 31 32 32 32 32
9 9 10 11 11 12 12 13 13 14 14 15 16 16 17 18 18 19 20 21 22 23 24 25 25 26 26 27 28 29 30 31 31 32 33 34 35 35
11 11 12 12 13 13 14 15 15 16 16 17 18 18 18 19 20 21 21 22 24 25 26 27 28 29 30 30 30 31 32 33 33 33 34 35 36 36
13 13 14 14 15 15 16 16 17 18 18 19 20 20 21 22 22 23 24 25 26 26 27 28 29 30 31 32 32 33 34 34 35 36 36 37 37 37
14 15 15 16 16 17 18 18 19 20 21 21 22 22 23 24 25 26 26 27 28 28 29 30 31 31 32 33 34 34 35 35 35 36 37 38 39 40
15 16 16 17 18 19 20 21 21 22 23 24 24 25 26 27 28 29 29 29 30 31 32 32 33 33 33 34 35 35 36 36 37 37 38 40 41 41
16 17 18 19 20 21 22 23 23 24 25 26 27 28 29 29 30 31 31 32 32 32 33 33 34 34 35 36 37 37 38 39 39 40 41 42 42 43
18 19 20 21 22 23 24 25 26 27 27 28 29 30 31 31 32 32 33 33 34 34 35 35 36 36 37 38 38 39 40 41 42 43 43 44 45 46
20 21 22 23 24 25 26 27 28 29 30 30 31 32 33 33 33 34 34 35 36 36 37 37 38 39 40 41 42 43 44 45 46 46 46 47 48 48
22 23 24 25 26 27 28 29 30 31 32 33 34 35 35 36 36 36 37 38 39 39 40 40 41 42 43 44 45 46 47 48 49 50 50 50 51 51
25 26 27 28 29 30 31 31 32 34 34 35 36 36 37 38 38 39 40 40 41 42 42 43 44 44 45 46 48 49 50 50 51 52 52 53 53 54
27 28 30 31 31 33 33 34 35 36 36 37 37 38 38 39 40 42 43 44 44 44 44 45 46 47 47 47 49 50 51 52 52 53 54 55 56 56
30 31 32 33 34 35 35 36 37 38 38 39 39 40 41 42 44 45 46 46 47 47 47 48 48 49 50 50 51 52 53 53 54 55 56 57 58 58
32 33 34 35 36 36 37 37 38 40 40 41 42 43 44 45 46 47 47 48 48 49 49 50 51 51 52 53 53 53 54 55 56 57 58 58 58 59
34 35 36 36 37 37 38 40 41 42 43 44 45 45 46 47 48 48 49 49 50 50 51 52 53 53 54 54 55 55 56 56 57 58 58 57 57 58
36 36 37 37 38 39 40 42 43 44 45 46 46 47 48 48 49 49 50 50 51 51 52 53 54 54 55 55 56 57 58 57 56 56 56 56 56 56
37 38 38 39 40 41 43 45 46 47 47 48 48 49 49 50 50 51 51 51 51 52 52 53 54 55 56 57 57 57 57 56 56 55 55 54 54 54
39 39 40 41 43 44 46 47 48 49 49 49 50 50 50 51 51 51 52 52 52 53 54 54 55 55 56 56 56 56 55 54 53 53 53 53 52 52
40 41 42 44 45 46 47 48 49 50 50 50 50 50 50 51 51 52 52 52 53 53 53 54 54 55 54 54 52 53 52 51 50 49 49 50 50 49
42 43 44 45 47 48 49 49 50 50 50 50 50 50 51 51 51 52 52 52 52 52 52 52 53 53 52 51 49 48 48 49 47 46 46 46 46 46
43 44 45 47 48 49 49 50 51 51 51 51 50 51 51 51 51 51 51 51 51 51 51 51 51 51 50 48 47 45 45 45 46 44 44 44 44 43
44 45 47 48 49 49 50 51 51 51 51 51 50 51 51 51 50 50 49 49 50 50 50 50 49 48 47 46 45 44 43 42 42 42 42 42 42 42
45 46 47 48 49 50 51 51 51 50 50 50 50 50 50 50 49 48 49 49 48 48 48 48 47 46 46 45 44 43 42 41 41 40 41 41 41 41
Wind_Direction
319 320 321 320 318 314 311 307 306 305 305 304 302 300 295 292 289 286 283 282 281 279 277 274 272 270 268 266 266 265 266 266 266 265 263 262 261 261
310 314 315 315 316 317 315 311 307 306 306 304 303 301 297 294 291 289 287 285 283 281 279 278 277 276 273 272 269 268 267 267 266 265 263 263 262 261
304 307 310 312 312 313 312 311 309 308 306 305 302 300 298 294 293 292 290 288 285 283 282 281 280 278 276 275 273 271 271 270 268 266 264 263 263 262
302 304 305 307 308 308 309 310 308 307 307 305 303 300 297 296 295 292 291 289 287 285 284 283 281 280 279 277 274 273 272 272 270 269 267 265 264 263
302 304 304 305 306 307 307 307 306 305 304 303 302 300 298 297 296 295 293 291 289 287 286 284 282 281 280 278 276 275 273 272 271 270 269 267 266 265
301 302 303 304 304 305 306 307 306 306 304 303 301 300 299 298 297 296 294 292 291 289 288 286 284 282 281 280 277 276 275 273 273 272 271 270 267 266
300 302 303 304 305 306 306 306 306 305 303 302 301 300 299 298 297 296 294 293 292 291 290 288 286 284 282 281 279 277 276 275 274 273 273 271 269 268
301 303 305 305 306 306 306 305 305 304 303 302 301 300 300 298 297 295 294 293 292 291 290 288 287 286 285 284 282 280 278 277 276 275 274 273 272 270
301 303 304 305 305 305 305 305 305 305 304 303 302 301 300 299 298 296 295 294 293 292 290 289 288 287 286 285 283 282 281 279 279 278 276 274 273 272
302 303 304 305 305 304 305 305 305 305 304 303 302 302 301 299 298 296 295 294 293 292 290 289 288 287 286 286 285 284 283 282 280 279 278 276 274 272
303 304 304 304 304 304 304 305 305 305 304 303 302 301 300 298 297 295 294 294 293 292 291 289 289 288 287 286 286 285 284 283 282 280 278 277 276 274
303 304 304 304 304 305 304 304 304 304 303 303 302 301 300 299 298 297 296 295 294 293 292 291 289 288 288 287 287 286 285 283 282 281 279 277 276 274
303 304 305 305 305 305 305 304 304 304 304 303 302 301 300 300 299 299 298 297 296 294 293 292 291 290 289 288 288 287 286 285 283 282 281 279 277 274
304 305 305 305 305 305 305 305 305 305 304 303 303 302 301 301 300 300 299 298 297 296 294 293 292 291 291 290 289 288 287 286 285 284 283 281 278 276
304 304 305 305 305 305 305 305 305 306 305 304 303 302 302 302 301 300 299 298 298 297 296 295 293 292 292 292 291 290 289 288 287 286 284 282 279 277
304 304 305 305 305 305 305 305 306 306 305 304 303 303 302 302 302 300 300 299 298 297 296 295 295 294 293 293 292 291 290 289 287 285 283 281 280 278
303 304 304 305 305 305 306 306 306 306 305 304 303 303 303 302 302 301 300 299 299 298 297 296 295 295 295 295 293 292 291 289 287 285 283 282 281 279
303 304 304 305 305 305 306 306 306 306 305 304 304 303 303 303 303 302 302 300 300 299 298 297 297 297 296 295 295 293 292 290 288 285 284 283 281 280
303 304 304 305 305 306 306 307 307 306 306 305 305 304 304 304 304 303 302 301 301 300 300 299 298 299 298 297 295 294 293 291 289 288 286 285 283 281
303 304 304 305 306 307 307 307 307 307 307 306 306 305 305 305 305 305 304 303 302 302 302 301 301 300 300 299 298 296 295 294 292 290 289 287 285 283
303 304 305 306 307 307 308 308 308 308 307 306 306 306 307 306 306 306 305 304 304 304 304 303 303 301 300 299 298 297 296 295 294 292 291 288 286 284
303 304 305 306 307 307 308 309 309 308 308 307 307 307 308 308 308 307 307 306 306 306 305 305 304 302 300 298 297 296 296 295 294 292 291 290 288 285
304 304 305 307 307 308 308 309 309 309 308 308 309 309 309 309 308 308 309 308 308 307 307 306 304 302 301 299 297 296 296 296 294 291 289 289 289 287
Height
5871 5870 5869 5867 5866 5864 5862 5861 5860 5858 5856 5854 5852 5851 5849 5848 5847 5845 5844 5843 5842 5841 5840 5839 5839 5838 5837 5837 5837 5836 5836 5836 5836 5836 5836 5837 5837 5837
5870 5869 5867 5865 5864 5862 5860 5858 5857 5855 5853 5851 5849 5847 5845 5844 5842 5841 5839 5838 5837 5836 5834 5833 5832 5831 5830 5830 5829 5829 5829 5828 5828 5828 5828 5828 5829 5829
5868 5866 5865 5863 5861 5860 5858 5856 5854 5852 5850 5848 5846 5843 5841 5839 5837 5836 5834 5833 5831 5829 5828 5826 5825 5824 5823 5822 5821 5820 5820 5820 5819 5819 5819 5819 5819 5820
5865 5863 5862 5860 5858 5856 5854 5852 5850 5848 5846 5844 5842 5839 5837 5835 5832 5830 5828 5826 5824 5823 5821 5819 5818 5816 5815 5813 5812 5811 5811 5810 5810 5809 5809 5809 5809 5809
5861 5860 5858 5856 5855 5853 5851 5848 5846 5844 5841 5839 5837 5834 5832 5829 5827 5824 5822 5819 5817 5815 5813 5811 5809 5808 5806 5804 5803 5802 5801 5800 5799 5799 5798 5798 5798 5798
5858 5856 5854 5852 5850 5848 5846 5844 5841 5839 5836 5833 5831 5828 5826 5823 5820 5817 5815 5812 5810 5807 5805 5803 5800 5798 5797 5795 5793 5792 5791 5790 5789 5788 5787 5786 5786 5786
5853 5851 5850 5847 5845 5843 5841 5838 5835 5833 5830 5827 5824 5821 5818 5815 5812 5809 5806 5804 5801 5798 5796 5793 5791 5789 5787 5785 5783 5781 5780 5779 5778 5776 5775 5774 5773 5773
5849 5847 5845 5842 5840 5837 5834 5832 5829 5826 5823 5820 5817 5813 5810 5807 5804 5800 5797 5795 5792 5789 5786 5783 5780 5778 5776 5774 5772 5770 5768 5766 5765 5763 5762 5760 5759 5759
5843 5841 5839 5836 5834 5831 5828 5824 5821 5818 5815 5811 5808 5805 5801 5798 5795 5791 5787 5784 5781 5778 5775 5772 5769 5767 5764 5761 5759 5757 5755 5753 5751 5749 5747 5746 5744 5744
5838 5835 5833 5830 5827 5824 5820 5817 5813 5810 5806 5802 5799 5795 5791 5787 5784 5780 5777 5774 5770 5767 5763 5761 5758 5754 5751 5748 5745 5743 5740 5738 5735 5734 5732 5730 5729 5727
5831 5829 5826 5823 5819 5816 5813 5809 5805 5801 5797 5793 5788 5784 5780 5776 5773 5769 5765 5762 5759 5755 5751 5748 5745 5741 5738 5734 5731 5727 5724 5722 5719 5717 5714 5713 5711 5710
5825 5821 5818 5815 5811 5807 5803 5800 5796 5791 5787 5783 5778 5774 5770 5766 5761 5757 5753 5749 5745 5742 5738 5734 5730 5727 5724 5721 5716 5712 5708 5705 5702 5699 5697 5694 5692 5691
5817 5813 5810 5806 5802 5798 5794 5790 5785 5781 5777 5772 5767 5763 5758 5754 5749 5744 5739 5735 5731 5727 5723 5719 5715 5711 5707 5704 5700 5696 5691 5688 5684 5681 5678 5675 5673 5671
5808 5805 5801 5797 5793 5788 5784 5780 5775 5770 5766 5761 5756 5751 5746 5741 5736 5731 5726 5720 5716 5711 5707 5702 5698 5694 5690 5686 5683 5679 5674 5669 5666 5662 5659 5655 5653 5650
5799 5795 5791 5787 5783 5779 5774 5769 5764 5759 5754 5749 5744 5739 5734 5728 5723 5717 5712 5706 5701 5696 5691 5686 5681 5677 5672 5668 5664 5660 5655 5651 5646 5642 5638 5635 5632 5630
5790 5786 5782 5777 5773 5768 5763 5758 5753 5747 5742 5736 5731 5726 5720 5715 5709 5703 5697 5692 5687 5681 5675 5669 5664 5659 5655 5650 5644 5640 5635 5631 5627 5622 5618 5616 5613 5610
5780 5776 5771 5767 5762 5757 5752 5746 5740 5735 5729 5723 5718 5712 5706 5700 5694 5688 5682 5677 5671 5665 5660 5654 5648 5642 5637 5631 5625 5620 5615 5611 5607 5602 5599 5597 5594 5591
5770 5765 5761 5756 5751 5745 5740 5734 5728 5722 5716 5710 5704 5698 5692 5686 5680 5674 5667 5661 5655 5649 5643 5637 5631 5625 5620 5614 5607 5601 5597 5592 5588 5584 5580 5577 5576 5573
5759 5755 5750 5744 5739 5733 5727 5721 5715 5709 5702 5696 5690 5684 5677 5671 5665 5659 5652 5646 5639 5633 5626 5620 5613 5606 5601 5597 5592 5583 5577 5573 5570 5566 5563 5559 5557 5556
5748 5743 5738 5732 5726 5720 5714 5708 5702 5695 5689 5682 5676 5670 5663 5657 5651 5644 5637 5630 5624 5617 5611 5604 5597 5590 5583 5578 5575 5569 5562 5556 5553 5549 5547 5543 5540 5538
5737 5731 5726 5720 5714 5708 5702 5695 5689 5682 5676 5669 5663 5656 5649 5643 5636 5629 5622 5615 5608 5602 5596 5589 5582 5575 5568 5562 5558 5555 5549 5543 5537 5533 5530 5527 5525 5523
5725 5720 5714 5708 5702 5696 5689 5682 5676 5669 5662 5656 5649 5642 5635 5628 5622 5615 5608 5601 5595 5588 5581 5575 5567 5561 5554 5549 5544 5540 5536 5531 5525 5520 5515 5512 5509 5507
5713 5708 5702 5696 5689 5683 5676 5669 5662 5656 5649 5642 5636 5629 5622 5615 5608 5601 5595 5588 5581 5574 5567 5561 5554 5547 5541 5535 5530 5526 5522 5517 5512 5508 5504 5500 5496 5493